Regional Weather Roundup
Issued by NWS Albany, NY

Home | Current Version | Previous Version | Graphics & Text | Print | Product List | Glossary Off
Versions: 1 2 3 4 5 6 7 8 9 10 11 12 13 14 15 16 17 18 19 20 21 22 23 24 25 26 27

000
ASUS41 KALY 222010
RWRALY

NEW YORK STATE HOURLY WEATHER ROUNDUP
NATIONAL WEATHER SERVICE ALBANY NY
400 PM EDT TUE AUG 22 2017

NOTE: "FAIR" INDICATES FEW OR NO CLOUDS BELOW 12,000 FEET WITH NO
SIGNIFICANT WEATHER AND/OR NO OBSTRUCTIONS TO VISIBILITY.

NYZ032-033-038>043-046>054-057>066-NYZ062>081-082-084-222100-
EAST


CITY           SKY/WX    TMP DP  RH WIND       PRES   REMARKS
ALBANY         PTSUNNY   88  70  55 S16G26    29.73F HX  93
GLENS FALLS    MOSUNNY   86  70  58 S16G23    29.70F HX  90
POUGHKEEPSIE   MOSUNNY   88  68  51 S13G21    29.79F HX  91
NEWBURGH       MOSUNNY   88  72  58 SW12G23   29.84F HX  94
MONTGOMERY     MOSUNNY   89  71  55 SW15G24   29.81F HX  95
WHITE PLAINS   MOSUNNY   86  73  65 S15G22    29.85F HX  93
ISLIP          PTSUNNY   82  76  81 SW16G24   29.88F
NEW YORK CITY  MOSUNNY   90  76  63 SE12G22   29.83F HX 101
CENTRAL PARK   MOSUNNY   88  73  61 S8        29.87F HX  95
$$

NYZ005>009-017-018-044>046-055-056-222100-
CENTRAL


CITY           SKY/WX    TMP DP  RH WIND       PRES   REMARKS
FULTON         CLOUDY    76  71  85 SW9       29.69F
SYRACUSE       TSTM      72  72 100 CALM      29.69S
ROME           CLOUDY    84  66  54 S9        29.71S
ELMIRA         LGT RAIN  84  63  49 SW12      29.75F
BINGHAMTON     CLOUDY    82  65  56 SW21G28   29.80F
MONTICELLO     SUNNY     84  67  56 SW14G20   29.87F
$$

NYZ026>034-041>043-087-222100-
NORTH


CITY           SKY/WX    TMP DP  RH WIND       PRES   REMARKS
WATERTOWN      PTSUNNY   74  71  91 S15G22    29.63F
FORT DRUM      NOT AVBL
OGDENSBURG     FAIR      79  73  80 SW18G24   29.59F
MASSENA        PTSUNNY   75  72  90 S9        29.60F
SARANAC LAKE   TSTM      73  69  87 SW12      29.72R FOG
PLATTSBURGH    CLOUDY    82  70  66 S9        29.63S
$$

NYZ001>004-010>016-019>021-085-222100-
WEST


CITY           SKY/WX    TMP DP  RH WIND       PRES   REMARKS
NIAGARA FALLS  PTSUNNY   80  67  64 SW16G25   29.68S
BUFFALO        CLOUDY    76  70  82 SW18G26   29.70F
DUNKIRK        CLOUDY    74  70  87 SW20G28   29.73F
JAMESTOWN      CLOUDY    68  66  94 SW10G22   29.82S
WELLSVILLE     CLOUDY    75  67  76 VRB7G21   29.85R
ROCHESTER      TSTM      73  69  87 SW21G30   29.72S FOG
PENN YAN       CLOUDY    75  69  81 SW7       29.75F
$$

             KEY
       WCI = WIND CHILL INDEX
       VSB = VISIBILITY
       HX  = HEAT INDEX
$$




USA.gov is the U.S. government's official web portal to all federal, state and local government web resources and services.